| time (UTC) | temp C | wind direction | speed KPH | gust KPH | rain 1hr cm | rain 24hr cm | rain mn cm | humidity % | barometer mb |
| 20260506135318 | 7 | 336 | 16.1 | 24.1 | 0.00 | 1.14 | 0.10 | 82 | 1009.8 |
| 20260506133817 | 6 | 331 | 16.1 | 25.7 | 0.00 | 1.14 | 0.10 | 83 | 1009.7 |
| 20260506132319 | 6 | 341 | 14.5 | 24.1 | 0.00 | 1.14 | 0.10 | 86 | 1009.5 |
| 20260506130817 | 6 | 330 | 16.1 | 20.9 | 0.00 | 1.14 | 0.10 | 86 | 1009.5 |
| 20260506125318 | 5 | 338 | 14.5 | 19.3 | 0.00 | 1.14 | 0.10 | 89 | 1009.5 |
| 20260506123818 | 5 | 321 | 16.1 | 20.9 | 0.00 | 1.14 | 0.10 | 88 | 1009.1 |
| 20260506122319 | 5 | 329 | 14.5 | 20.9 | 0.00 | 1.14 | 0.10 | 89 | 1009.1 |
| 20260506120818 | 5 | 348 | 14.5 | 16.1 | 0.00 | 1.14 | 0.10 | 90 | 1009.1 |
| 20260506115319 | 5 | 353 | 8.0 | 14.5 | 0.00 | 1.14 | 0.10 | 90 | 1008.5 |
| 20260506113818 | 6 | 335 | 12.9 | 19.3 | 0.00 | 1.14 | 0.10 | 90 | 1008.5 |
| 20260506112321 | 6 | 342 | 12.9 | 19.3 | 0.00 | 1.14 | 0.10 | 89 | 1008.1 |
| 20260506110817 | 7 | 324 | 4.8 | 9.7 | 0.00 | 1.14 | 0.10 | 92 | 1007.8 |
| 20260506105317 | 7 | 341 | 3.2 | 8.0 | 0.00 | 1.14 | 0.10 | 94 | 1007.5 |
| 20260506103818 | 7 | 310 | 3.2 | 3.2 | 0.00 | 1.14 | 0.10 | 93 | 1007.1 |
| 20260506102318 | 7 | 303 | 3.2 | 4.8 | 0.00 | 1.14 | 0.10 | 93 | 1006.8 |
| 20260506100818 | 7 | 286 | 1.6 | 3.2 | 0.00 | 1.14 | 0.10 | 91 | 1006.8 |
| 20260506095317 | 7 | 285 | 1.6 | 3.2 | 0.00 | 1.14 | 0.10 | 91 | 1007.1 |
| 20260506093817 | 7 | 284 | 3.2 | 8.0 | 0.00 | 1.14 | 0.10 | 91 | 1007.1 |
| 20260506092321 | 7 | 296 | 3.2 | 3.2 | 0.00 | 1.14 | 0.10 | 93 | 1007.0 |
| 20260506090817 | 7 | 291 | 3.2 | 4.8 | 0.00 | 1.14 | 0.10 | 90 | 1007.1 |
| 20260506085319 | 7 | 265 | 4.8 | 8.0 | 0.00 | 1.14 | 0.10 | 90 | 1007.5 |
| 20260506083817 | 7 | 295 | 4.8 | 4.8 | 0.00 | 1.14 | 0.10 | 90 | 1006.8 |
| 20260506082319 | 7 | 286 | 1.6 | 4.8 | 0.00 | 1.14 | 0.10 | 89 | 1006.8 |
| 20260506080820 | 7 | 281 | 3.2 | 4.8 | 0.03 | 1.14 | 0.10 | 89 | 1006.8 |
| 20260506072318 | 7 | 287 | 4.8 | 4.8 | 0.03 | 1.14 | 0.10 | 92 | 1007.1 |
| 20260506070818 | 7 | 289 | 3.2 | 4.8 | 0.00 | 1.12 | 0.08 | 93 | 1007.5 |
| 20260506062319 | 7 | 285 | 3.2 | 4.8 | 0.03 | 1.12 | 0.08 | 94 | 1007.1 |
| 20260506060817 | 7 | 302 | 3.2 | 8.0 | 0.03 | 1.12 | 0.08 | 94 | 1007.1 |
| 20260506050817 | 8 | 300 | 3.2 | 8.0 | 0.05 | 1.09 | 0.05 | 98 | 1007.5 |
| 20260506043816 | 8 | 294 | 3.2 | 4.8 | 0.00 | 1.07 | 0.03 | 99 | 1007.5 |
| 20260506042320 | 8 | 284 | 3.2 | 3.2 | 0.00 | 1.07 | 0.03 | 99 | 1007.5 |
| 20260506040816 | 8 | 288 | 3.2 | 4.8 | 0.00 | 1.04 | 0.00 | 99 | 1007.5 |
| 20260506035318 | 8 | 284 | 3.2 | 4.8 | 0.20 | 1.04 | 1.04 | 99 | 1007.5 |
| 20260506033817 | 8 | 282 | 1.6 | 3.2 | 0.18 | 0.99 | 0.99 | 99 | 1007.5 |
| 20260506032318 | 8 | 275 | 3.2 | 3.2 | 0.13 | 0.94 | 0.94 | 99 | 1007.5 |
| 20260506030817 | 8 | 255 | 8.0 | 9.7 | 0.10 | 0.89 | 0.89 | 99 | 1007.8 |
| 20260506025318 | 8 | 253 | 9.7 | 11.3 | 0.05 | 0.84 | 0.84 | 99 | 1007.8 |
| 20260506023817 | 8 | 256 | 9.7 | 11.3 | 0.03 | 0.81 | 0.81 | 99 | 1007.8 |
| 20260506022318 | 8 | 263 | 4.8 | 8.0 | 0.03 | 0.81 | 0.81 | 99 | 1007.5 |
| 20260506020818 | 8 | 238 | 4.8 | 9.7 | 0.00 | 0.79 | 0.79 | 99 | 1007.1 |
| 20260506015319 | 8 | 263 | 8.0 | 9.7 | 0.03 | 0.79 | 0.79 | 99 | 1007.1 |
| 20260506013817 | 8 | 258 | 4.8 | 9.7 | 0.05 | 0.81 | 0.79 | 99 | 1006.8 |
| 20260506012318 | 8 | 265 | 4.8 | 9.7 | 0.05 | 0.89 | 0.79 | 99 | 1006.8 |
| 20260506010817 | 8 | 250 | 8.0 | 11.3 | 0.05 | 0.99 | 0.79 | 99 | 1007.1 |
| 20260506005319 | 8 | 247 | 8.0 | 12.9 | 0.03 | 1.09 | 0.76 | 99 | 1007.1 |
| 20260506003817 | 8 | 233 | 9.7 | 12.9 | 0.05 | 1.07 | 0.74 | 99 | 1006.8 |
| 20260506002437 | 8 | 242 | 4.8 | 9.7 | 0.08 | 1.07 | 0.74 | 99 | 1006.8 |
| 20260506000941 | 8 | 244 | 4.8 | 8.0 | 0.10 | 1.07 | 0.74 | 99 | 1006.4 |
| 20260505235318 | 8 | 242 | 9.7 | 11.3 | 0.15 | 1.07 | 0.74 | 99 | 1006.4 |
| 20260505233817 | 9 | 249 | 4.8 | 8.0 | 0.20 | 1.02 | 0.69 | 99 | 1006.8 |
| 20260505232320 | 9 | 229 | 8.0 | 9.7 | 0.23 | 0.99 | 0.66 | 99 | 1006.8 |
| 20260505230816 | 9 | 278 | 4.8 | 8.0 | 0.23 | 0.97 | 0.64 | 99 | 1006.4 |
| 20260505225319 | 9 | 279 | 3.2 | 4.8 | 0.23 | 0.91 | 0.58 | 99 | 1006.4 |
| 20260505223816 | 9 | 283 | 1.6 | 4.8 | 0.15 | 0.81 | 0.48 | 98 | 1006.1 |
| 20260505222317 | 9 | 283 | 1.6 | 8.0 | 0.13 | 0.76 | 0.43 | 98 | 1006.8 |
| 20260505220817 | 10 | 296 | 3.2 | 4.8 | 0.10 | 0.74 | 0.41 | 98 | 1006.8 |
| 20260505215317 | 10 | 296 | 3.2 | 4.8 | 0.10 | 0.69 | 0.36 | 96 | 1006.1 |
| 20260505213818 | 10 | 296 | 1.6 | 3.2 | 0.08 | 0.66 | 0.33 | 95 | 1006.4 |
| 20260505212317 | 10 | 306 | 0.0 | 3.2 | 0.08 | 0.64 | 0.30 | 95 | 1006.4 |
| 20260505210817 | 10 | 326 | 1.6 | 1.6 | 0.15 | 0.64 | 0.30 | 95 | 1006.8 |
| 20260505205317 | 10 | 326 | 3.2 | 3.2 | 0.18 | 0.58 | 0.25 | 94 | 1006.8 |
| 20260505203817 | 10 | 335 | 4.8 | 9.7 | 0.25 | 0.58 | 0.25 | 93 | 1006.8 |
| 20260505202318 | 10 | 330 | 4.8 | 9.7 | 0.23 | 0.56 | 0.23 | 93 | 1006.8 |
| 20260505200817 | 10 | 338 | 8.0 | 12.9 | 0.15 | 0.48 | 0.15 | 91 | 1006.7 |
| 20260505195317 | 11 | 338 | 11.3 | 16.1 | 0.08 | 0.41 | 0.08 | 92 | 1006.1 |
| 20260505193817 | 11 | 330 | 12.9 | 14.5 | 0.00 | 0.33 | 0.00 | 86 | 1006.4 |
| 20260505192316 | 12 | 332 | 14.5 | 19.3 | 0.00 | 0.33 | 0.00 | 81 | 1006.1 |
| 20260505190817 | 13 | 321 | 12.9 | 19.3 | 0.00 | 0.33 | 0.00 | 77 | 1005.8 |
| 20260505185318 | 14 | 314 | 4.8 | 8.0 | 0.00 | 0.33 | 0.00 | 78 | 1005.4 |
| 20260505183817 | 15 | 322 | 4.8 | 12.9 | 0.00 | 0.33 | 0.00 | 74 | 1005.8 |
| 20260505182317 | 15 | 340 | 8.0 | 14.5 | 0.00 | 0.33 | 0.00 | 77 | 1005.4 |
| 20260505180817 | 15 | 305 | 8.0 | 9.7 | 0.00 | 0.33 | 0.00 | 78 | 1005.1 |
| 20260505175319 | 15 | 312 | 4.8 | 8.0 | 0.00 | 0.33 | 0.00 | 77 | 1005.1 |
| 20260505173816 | 15 | 325 | 1.6 | 4.8 | 0.00 | 0.33 | 0.00 | 75 | 1005.1 |
| 20260505172317 | 15 | 341 | 3.2 | 4.8 | 0.00 | 0.33 | 0.00 | 74 | 1004.7 |
| 20260505170816 | 15 | 352 | 3.2 | 4.8 | 0.00 | 0.33 | 0.00 | 73 | 1005.1 |
| 20260505165317 | 14 | 113 | 1.6 | 3.2 | 0.00 | 0.33 | 0.00 | 79 | 1005.1 |
| 20260505163816 | 15 | 14 | 1.6 | 3.2 | 0.00 | 0.33 | 0.00 | 75 | 1005.1 |
| 20260505162319 | 15 | 341 | 8.0 | 12.9 | 0.00 | 0.33 | 0.00 | 77 | 1004.5 |
| 20260505160816 | 15 | 332 | 4.8 | 9.7 | 0.00 | 0.33 | 0.00 | 80 | 1004.7 |
| 20260505152317 | 16 | 292 | 9.7 | 19.3 | 0.00 | 0.33 | 0.00 | 78 | 1004.1 |
| 20260505150816 | 16 | 290 | 14.5 | 20.9 | 0.00 | 0.33 | 0.00 | 82 | 1003.7 |